Погода в Хмельнике

Польша     50°36′41″N   20°45′18″E
темп.,
°C
ветер,
м/с
пор.,
м/с
влажн.,
%
обл.,
%
осадки,
мм/ч
давл.,
гПа
погр.,
м
27 ноября, сб
сб2701:00+3з6997100 4.4 991508
04:00+1з61195100 0.1 992549
07:00+1з71086100 0.2 995649
10:00+2з5780100 0.0 997711
13:00+4зюз356812 0.0 997706
16:00+3ю117537 0.0 99810
19:00+2вюв2384100 0.0 99866
22:00+2ссв2396100 1.0 999222
28 ноября, вс
вс2801:00+2ссв0097100 1.0 99929
04:00+2сз1297100 0.0 999231
07:00+2св2296100 0.0 1000140
10:00+3в4688100 0.0 999335
13:00+4в5986100 0.0 996355
16:00+6юв61291100 0.0 994498
19:00+7юв71392100 0.0 992442
22:00+7юв3894100 0.8 990264
29 ноября, пн
пн2901:00+3зсз4893100 6.9 991337
04:00+1з71296100 1.3 991513
07:000зсз81296100 2.2 993783
10:00+1з81388100 0.1 9951056
13:00+1з9149096 0.3 995976
16:00+1з91588100 0.1 9971005
19:00+1з9158999 0.2 999951
22:00+1з91586100 0.1 1000959
30 ноября, вт
вт3001:000з91492100 0.4 10011105
04:000з91593100 0.2 10031111
07:000зсз81392100 0.4 10051029
10:00+1зсз7128488 0.1 10081060
13:00+1з7127598 0.2 10071310
16:00−1зюз81583100 0.1 1005584
19:00+1юз91677100 0.1 10021012
22:00+1зюз111884100 0.6 1000972
1 декабря, ср
ср101:00+2зюз10178999 0.8 10001012
04:00+2з10178399 1.2 10021314
07:00+1з10167983 1.3 1004959
10:00+2з7127815 0.0 1006895
13:00+3зюз51082100 0.0 1005967
16:00+4юз71485100 0.1 1002926
19:00+5юз91790100 0.1 1000876
22:00+6зюз91878100 0.0 9991024